Location: Newark
(47.5833°N, 8.1500°E)
Time: 16:37:41
(UTC+00:00)

Transit 2A - Pass Details

Date: 30 October 2020
Orbit: 595 x 964 km, 66.7° (Epoch: 29 November)

Event Time Altitude Azimuth Distance (km) Brightness Sun altitude
Rises 07:27:08 0° 327° (NNW) 3,511 8.8 10.8°
Reaches altitude 10° 07:29:57 10° 336° (NNW) 2,514 8.2 11.2°
Maximum altitude 07:35:16 36° 42° (NE) 1,268 7.4 11.9°
Drops below altitude 10° 07:40:04 10° 108° (ESE) 2,272 10.2 12.6°
Sets 07:42:30 0° 118° (ESE) 3,131 11.0 12.9°
